www.pogodaiklimat.ru
ПОГОДА в Кыне

Архив погоды в Кыне (Пермский край, Россия)

Время
(UTC), дата
09 8.07
12 8.07
15 8.07
18 8.07
21 8.07
00 9.07
03 9.07
06 9.07
09 9.07
12 9.07
15 9.07
18 9.07
21 9.07
00 10.07
03 10.07
06 10.07
09 10.07
12 10.07
15 10.07
18 10.07
21 10.07
00 11.07
03 11.07
06 11.07
09 11.07
12 11.07
15 11.07
18 11.07
21 11.07
00 12.07
03 12.07
06 12.07
09 12.07
12 12.07
15 12.07
18 12.07
21 12.07
00 13.07
03 13.07
06 13.07
09 13.07
12 13.07
15 13.07
18 13.07
21 13.07
00 14.07
03 14.07
06 14.07
Ветер
(напр.,м/с)
Видим. Явления Облачность Т
(С)
Тd
(С)
f
(%)
Тe
(С)
Тes
(С)
Комфортность P
(гПа)
Po
(гПа)
Тmin
(С)
Tmax
(С)
R
(мм)
R24
(мм)
S
(см)
СВ 4 50 км 9/6 600 м
[Cu med, cong Ci fib]
+25.7 +9.7 36 +26 +29 жарко 1014.5 986.7
СВ 3 50 км 8/6 600 м
[Cu med, cong Ci fib]
+25.3 +8.5 34 +26 +28 жарко 1014.8 986.9
СВ 4 50 км 6/0
[Ci fib]
+24.8 +10.8 41 +26 +26 жарко 1015.1 987.2 +27.2
штиль 0 50 км 4/0 2000 м
[As op Ci fib]
+18.5 +12.4 68 +19 +19 1016.6 988.1
З 1 50 км 3/0
[Ci fib]
+13.8 +11.8 88 +14 +14 1017.8 988.8
ЮЗ 1 50 км туман на расстоянии 3/0
[Ci fib]
+11.3 +9.9 91 +11 +11 1018.6 989.3
Ю 1 50 км 1/0
[Ci fib]
+17.7 +12.5 72 +19 +24 1018.4 989.8 +11.3
СВ 2 50 км 1/1 600 м
[Cu hum]
+25.3 +10.6 40 +26 +37 жарко 1017.3 989.4
ЮВ 2 50 км 5/5 600 м
[Cu hum]
+27.7 +9.3 32 +28 +35 жарко 1017.0 989.2
СВ 2 50 км 3/3 600 м
[Cu hum]
+28.0 +9.4 31 +28 +33 жарко 1016.1 988.4
В 1 50 км 3/1 600 м
[Sc diur, vesp Ci fib]
+27.3 +9.7 33 +28 +29 жарко 1016.0 988.3 +28.5
З 1 50 км ясно +18.3 +14.1 76 +20 +20 1017.4 988.9
ЮЗ 1 50 км ясно +15.0 +13.2 89 +15 +15 1018.1 989.2
ЮЗ 1 50 км ясно +12.5 +11.2 92 +12 +13 1018.7 989.5
В 1 50 км ясно +18.9 +14.3 75 +21 +26 комфорт 1018.1 989.6 +12.5
Ю 2 50 км 3/1 600 м
[Cu hum Ci fib]
+26.8 +14.0 45 +29 +39 жарко 1016.8 989.1
ЮЗ 1 50 км 4/4 600 м
[Cu med, cong]
+28.4 +11.2 34 +29 +39 жарко 1015.6 988.0
ЮЗ 3 50 км 3/3 600 м
[Cu hum]
+29.0 +11.3 33 +30 +34 жарко 1014.7 987.1
ЮЗ 2 50 км 1/1 600 м
[Sc diur, vesp]
+27.4 +12.3 39 +29 +30 жарко 1014.1 986.4 +29.7
ЮЗ 2 50 км 6/6 600 м
[Sc diur, vesp]
+21.5 +15.6 69 +25 +25 комфорт 1014.8 986.6
ЮЗ 2 50 км 3/0 2000 м
[Ac trans]
+16.9 +14.9 88 +17 +17 1014.8 986.2
З 1 50 км туман на расстоянии 1/0 2000 м
[Ac trans]
+14.4 +13.0 91 +15 +15 1014.3 985.4
штиль 0 50 км 3/3 600 м
[Sc diur, vesp]
+19.7 +15.3 76 +22 +25 комфорт 1013.1 984.9 +14.1
СЗ 5 {12} 50 км гроза без осадков 9/8 600 м
[Cb calv Ac cast]
+23.5 +13.3 53 +26 +27 жарко 1011.7 983.8
С 4 50 км в посл. час гроза 8/6 600 м
[Cu med, cong Ac cast Ci fib]
+24.2 +13.7 52 +26 +29 жарко 1011.3 983.4
СЗ 7 50 км {гроза} 10/8 600 м
[Cu med, cong Ac cast]
+22.1 +14.3 61 +25 +25 комфорт 1010.5 982.5
С 2 {11} 50 км слаб. ливневой дождь 9/6 600 м
[Cb cap Ac cast]
+18.2 +14.2 77 +19 +19 1010.7 982.3 +24.3 0.0
С 2 50 км {ливн. дождь} 10/8 600 м
[Sc diur, vesp Ac cuf]
+16.9 +14.7 87 +17 +17 1010.7 982.2
С 4 50 км 10/10 600 м
[Sc diur, vesp]
+16.2 +13.2 82 +15 +15 1010.1 981.5
С 4 50 км {дождь} 10/10 600 м
[Sc]
+14.3 +11.6 84 +13 +13 1010.2 981.4
С 4 50 км 10/10 600 м
[Sc]
+13.8 +11.3 85 +12 +12 1010.5 981.7 +13.5 0.5
С 3 50 км 10/10 600 м
[Sc]
+13.7 +11.1 84 +13 +13 1010.8 982.0 +13.3
С 4 50 км в посл. час морось {дождь} 10/10 600 м
[Sc]
+14.6 +12.0 84 +13 +13 1010.9 982.2
С 4 50 км в посл. час дождь {морось} 10/10 600 м
[Sc]
+13.4 +11.3 87 +12 +12 1011.9 982.9
СВ 3 50 км 10/10 600 м
[Sc]
+12.3 +10.1 86 +11 +11 1013.4 984.3 +14.6 0.7
С 3 50 км {ливн. дождь} 10/10 600 м
[Sc]
+11.9 +9.7 86 +10 +10 1013.5 984.3
С 3 50 км 10/10 600 м
[Sc]
+12.3 +10.0 86 +11 +11 1012.8 983.7
С 2 50 км 10/10 600 м
[Sc]
+12.6 +10.4 86 +12 +12 1012.8 983.8
СВ 4 50 км 10/10 600 м
[Sc]
+13.4 +10.0 80 +12 +12 1013.4 984.4 +11.9 0.4
СВ 6 50 км 10/9 600 м
[Sc As trans]
+16.6 +9.3 62 +16 +16 1013.1 984.4
СВ 4 50 км 5/0
[Ci fib]
+21.6 +10.1 48 +23 +32 комфорт 1011.9 983.8
СВ 4 50 км 3/1 600 м
[Cu hum Ci fib]
+23.1 +10.2 44 +25 +29 комфорт 1011.3 983.3
В 4 50 км 1/1 600 м
[Sc]
+21.1 +11.4 54 +23 +23 комфорт 1012.0 983.9 +23.2
С 1 50 км ясно +14.8 +11.3 80 +15 +15 1013.3 984.5
штиль 0 50 км ясно +12.5 +10.7 89 +12 +12 1013.8 984.7
штиль 0 10 км туман на расстоянии ясно +10.0 +8.7 92 +9 +9 1014.6 985.2
В 1 50 км ясно +16.2 +11.7 75 +17 +22 1014.7 986.0 +9.8
В 3 50 км 6/4 600 м
[Cu hum Ci fib]
+21.4 +10.3 49 +23 +29 комфорт 1014.3 986.1
Местоположение метеостанции Кын (Пермский край, Россия): широта 57.83 долгота 58.65 высота над уровнем моря 245 м.
В архиве по умолчанию представлена погода в Кыне за последнюю неделю. Архивные данные за месяц целиком и за предыдущие месяцы, начиная с января 2011 года, Вы можете получить, выбрав интересующий диапазон дат из раскрывающегося списка и нажав кнопку "Найти!".
*Определитесь, кто Вы:
Внимание! Время в таблицах - всемирное. Для получения местного времени необходимо прибавить поправку, которая равна 5 ч.
Некоторые строки с данными для отдельных станций могут быть выделены курсивом. Это означает, что фактические данные отсутствуют по различным причинам, а приведенные значения являются расчетными модельными данными для данного пункта наблюдений.
Смотрите также архив погоды в соседних городах и на ближайших метеорологических станциях:
Партнеры нашего сайта:      
Пояснения к столбцам:
  • Ветер - указаны скорость ветра в м/с - средняя за 10 мин, порывы в срок и между сроками (в фигурных скобках) и направление, откуда дует ветер: С - северный,
  • СВ - северо-восточный, В - восточный, ЮВ - юго-восточный, Ю - южный, ЮЗ - юго-западный, З - западный, СЗ - северо-западный.
  • Видимость - горизонтальная дальность видимости в метрах или километрах. При видимости от 1 до 10 км при отсутствии осадков обычно наблюдается дымка, при ухудшении видимости до 1 км и менее - туман. В сухую погоду видимость может ухудшаться дымом, пылью или мглою.
  • Явления - указаны атмосферные явления, наблюдавшиеся в срок или в последний час перед сроком; фигурными скобками обозначены явления, наблюдавшиеся между сроками (за 1-3 часа до срока); квадратными скобками обозначены град или гололедные отложения с указанием их диаметра в мм.
  • Облачность - указаны через наклонную черту общая и нижняя облачность в баллах и высота нижней границы облаков в метрах; квадратными скобками обозначены формы облаков: Ci - перистые, Cs - перисто-слоистые, Cc - перисто-кучевые, Ac - высококучевые, As - высокослоистые, Sc - слоисто-кучевые, Ns - слоисто-дождевые, Cu - кучевые, Cb - кучево-дождевые. Подробнее классификацию облаков см. в Атласе облаков (PDF).
  • T - Температура воздуха - температура, измеренная на высоте 2 м над землей.
  • Td - Температура точки росы - температура, при понижении до которой содержащийся в воздухе водяной пар достигнет насыщения.
  • f - Относительная влажность воздуха - влажноcть воздуха, измеренная на высоте 2 м над землей.
  • Te - Эффективная температура - температура, которую ощущает одетый по сезону человек в тени. Характеристика душности погоды. При расчете учитывается влияние влажности воздуха и скорости ветра на теплоощущения человека.
  • Tes - Эффективная температура на солнце - температура, которую ощущает человек, с поправкой на солнечный нагрев. Характеристика знойности погоды. Зависит от высоты солнца над горизонтом, облачности и скорости ветра. Ночью, в пасмурную погоду, а также при ветре 12 м/с и более поправка равна нулю.
  • P - Атмосферное давление - приведенное к уровню моря атмосферное давление.
  • Po - Атмосферное давление - измеренное на уровне метеостанции атмосферное давление.
  • Tmin - Минимальная температура - минимум температуры воздуха на высоте 2 м над землей.
  • Tmax - Максимальная температура - максимум температуры воздуха на высоте 2 м над землей.
  • R - Количество осадков - Количество выпавших осадков за период времени, мм. При наведении курсора мыши на число - период времени, за который выпало указанное количество осадков.
  • R24 - Количество осадков - Количество выпавших осадков за 24 часа, мм.
  • S - Снежный покров - Высота снежного покрова, см. При наведении курсора мыши на число - состояние снежного покрова и степень покрытия местности в баллах.